Location: Augustenthal
(51.7167°N, 10.2833°E)
Time: 04:51:27
(UTC+00:00)

Cosmos 1805 - Pass Details

Date: 18 May 2021
Orbit: 522 x 531 km, 82.5° (Epoch: 14 June)

Event Time Altitude Azimuth Distance (km) Brightness Sun altitude
Rises 22:48:29 0° 347° (NNW) 2,677 8.5 -18.3°
Reaches altitude 10° 22:50:38 10° 346° (NNW) 1,781 7.2 -18.3°
Maximum altitude 22:54:32 72° 262° (W) 558 3.2 -18.4°
Enters shadow 22:55:32 47° 193° (SSW) 707 3.4 -18.4°
